Wind_Speed
20 17 13 8 7 8 8 7 3 4 6 7 7 6 5 8 10 10 9 8 10 12 10 11 10 11 11 12 13 14 13 14 15 17 18 20 21 23 26 26 28 27 30 29
28 25 20 15 12 9 8 9 9 4 2 2 2 2 5 7 7 8 8 8 11 10 11 12 13 14 14 14 14 16 18 17 17 20 21 23 25 25 28 30 31 33 34 35
35 32 28 24 19 15 11 8 9 11 8 6 4 4 5 6 6 5 4 3 4 6 8 10 11 13 13 14 15 16 17 19 21 21 23 26 28 29 30 32 33 35 37 40
42 35 33 30 25 21 18 14 12 12 11 9 10 6 6 5 4 9 7 4 5 8 11 12 14 12 14 14 17 20 23 24 25 25 26 26 27 30 33 36 38 40 40 41
47 42 40 36 31 26 24 21 17 15 16 12 9 13 11 8 10 12 12 11 12 12 16 14 17 17 17 18 19 20 22 24 26 28 29 30 32 36 38 39 42 45 47 49
49 47 43 42 36 33 32 27 25 20 19 20 14 14 13 14 14 14 15 14 16 14 18 17 20 20 21 22 22 22 26 28 29 30 31 33 34 37 39 40 42 45 47 50
50 45 45 47 44 41 37 34 33 27 26 25 20 18 20 16 17 16 17 18 20 22 23 20 22 25 25 26 27 27 28 32 33 36 37 37 37 39 39 40 45 49 53 56
55 51 47 49 48 48 46 44 37 34 33 30 25 24 26 22 22 20 24 25 24 24 25 26 27 29 31 31 32 32 34 36 38 39 40 42 45 45 44 45 47 52 54 57
56 51 53 52 52 50 50 44 44 43 38 34 33 31 30 27 29 29 29 32 32 34 34 37 38 37 38 38 34 37 39 40 40 41 43 46 48 47 49 48 52 55 57 60
63 62 62 59 58 54 49 48 46 45 43 41 39 35 34 33 34 35 39 36 31 35 39 42 44 43 42 43 42 42 43 44 45 44 45 49 48 50 53 53 55 57 59 62
69 66 65 66 57 56 55 51 49 52 47 45 45 43 40 38 40 39 41 40 39 37 42 42 44 46 45 46 48 48 47 47 47 47 50 49 54 54 57 56 56 61 62 65
74 72 73 62 63 61 61 57 53 53 50 48 47 48 45 43 44 42 42 43 47 45 42 45 47 47 49 51 52 51 51 51 52 52 52 53 57 60 62 59 59 63 64 68
80 74 76 72 68 64 64 60 57 56 54 50 54 50 52 47 47 46 47 48 50 49 48 46 49 49 51 52 54 55 55 55 55 54 50 55 60 65 59 63 69 64 68 69
85 78 79 74 69 70 71 68 63 63 60 62 59 57 52 51 49 49 51 49 51 49 48 49 53 53 51 53 56 54 55 57 57 57 58 56 56 55 60 71 73 68 74 71
81 76 78 75 77 77 74 73 71 68 65 67 68 64 57 55 54 52 51 50 54 55 53 55 57 56 55 55 58 58 58 56 56 58 54 56 53 59 71 73 74 75 78 74
80 77 75 75 77 78 76 72 72 72 73 71 71 66 63 60 62 59 55 51 54 60 57 57 59 59 57 58 59 59 59 59 57 57 60 60 60 69 70 73 78 82 72 80
80 75 76 74 74 73 74 70 72 73 71 74 70 66 68 66 69 64 59 60 61 63 62 63 66 62 60 61 62 62 62 62 59 61 60 55 64 68 73 77 79 72 81 84
78 76 76 76 73 75 72 68 69 70 69 70 70 73 73 72 72 68 68 69 69 69 68 70 73 69 64 63 64 63 64 63 60 62 67 70 69 72 73 76 74 79 87 91
83 80 80 79 75 72 74 73 74 76 75 72 69 67 68 69 72 72 71 73 71 73 74 75 76 73 71 71 69 66 65 63 62 64 65 66 74 72 75 74 80 81 84 84
90 90 84 85 83 79 75 77 79 79 81 78 75 71 70 71 72 72 75 76 74 76 79 80 82 80 78 74 75 72 69 68 66 67 69 69 70 63 70 77 72 74 62 57
90 91 89 86 82 80 80 81 80 79 81 79 78 79 77 78 79 77 76 76 75 77 76 80 79 85 78 80 80 77 73 71 68 63 59 63 69 68 66 73 74 51 42 45
89 88 88 89 90 89 84 83 81 81 83 84 82 80 79 79 77 83 78 81 77 72 72 76 77 72 78 84 81 80 74 67 63 63 66 67 68 69 66 59 44 43 52 52
80 80 85 87 87 83 84 85 83 84 85 85 80 83 82 81 80 84 81 79 69 73 76 75 74 78 78 78 76 75 71 71 68 59 60 58 55 49 24 55 55 59 64 83
73 78 80 77 77 81 84 85 86 85 84 82 78 75 75 75 76 75 71 69 74 80 81 80 82 79 67 63 65 70 70 62 69 71 62 64 56 40 47 64 66 78 94 97
75 74 72 73 71 64 70 76 77 79 82 78 62 51 51 64 76 74 75 77 81 80 77 75 74 70 72 71 74 69 68 65 66 64 64 61 51 55 69 86 96 102 99 105
76 73 67 69 70 65 72 71 74 64 59 67 67 71 79 77 77 77 77 84 83 86 80 76 71 79 75 67 64 62 63 70 68 69 73 72 75 74 77 82 89 94 97 99
Wind_Direction
265 269 278 291 309 328 330 325 354 66 78 80 90 76 69 87 81 76 80 83 58 58 45 30 34 34 29 19 15 20 19 16 10 2 1 2 357 355 357 358 1 356 353 351
261 263 270 272 276 281 297 310 304 302 345 352 65 105 125 88 89 83 81 66 64 54 43 40 28 32 29 23 18 17 18 12 2 358 358 357 358 355 354 351 353 351 351 353
254 258 265 267 266 258 259 268 280 290 287 284 298 320 344 185 96 118 119 90 63 35 16 5 12 8 12 12 10 6 8 7 2 355 352 353 352 351 351 348 346 346 346 347
252 253 259 260 261 255 254 247 268 276 268 278 287 282 287 283 293 235 272 300 331 350 348 347 341 347 344 349 352 353 350 351 347 345 342 339 341 346 348 346 346 346 344 344
247 247 252 254 255 254 254 247 237 244 265 265 257 273 264 262 274 286 287 305 310 280 309 324 322 325 331 335 342 341 335 332 332 333 333 330 337 341 343 343 342 342 342 343
245 247 249 256 254 253 253 252 250 238 245 251 255 270 265 277 275 277 291 300 295 295 295 307 311 316 322 323 325 328 324 322 324 324 322 328 328 332 334 335 337 337 338 340
249 249 247 251 252 254 256 254 253 248 244 244 241 256 263 263 269 280 287 283 284 290 292 300 302 308 314 314 318 322 320 318 320 320 321 321 321 324 328 326 332 334 336 339
241 243 244 247 248 248 249 252 254 253 249 247 243 252 257 268 276 281 282 284 285 292 301 302 300 301 303 308 314 317 317 317 319 319 318 318 318 322 321 325 326 328 332 335
243 242 244 244 246 248 249 252 252 254 258 256 253 251 260 262 267 270 275 282 288 296 299 297 294 296 300 303 310 311 312 314 317 319 317 315 315 318 320 319 322 324 328 331
239 238 241 242 243 245 248 249 253 255 254 255 257 256 253 256 261 265 271 272 278 287 289 291 296 300 302 304 307 306 309 313 314 316 316 313 314 317 316 316 318 320 322 326
238 240 242 243 248 250 251 252 252 253 253 252 254 257 256 256 261 263 269 274 275 274 281 287 292 297 297 299 301 303 305 306 307 311 314 312 313 313 314 314 314 318 317 323
240 240 242 245 244 246 247 248 251 258 259 258 257 256 255 254 256 260 266 273 275 275 275 282 286 290 293 295 296 299 301 302 306 310 311 309 308 308 311 313 312 316 315 320
237 240 242 241 244 247 254 254 255 257 260 262 260 257 259 259 259 259 260 264 271 276 278 281 286 287 289 292 294 296 300 303 306 308 306 303 304 305 304 313 315 314 315 313
239 237 241 244 245 246 248 252 253 255 258 259 259 261 263 265 265 265 266 268 272 276 281 282 281 283 288 292 293 297 298 300 305 306 304 304 305 300 303 311 312 310 312 310
237 238 241 243 244 247 249 253 255 257 257 260 264 265 267 269 269 268 268 270 274 273 273 275 281 285 287 291 293 295 297 301 304 304 304 304 301 298 302 305 310 309 308 309
236 237 238 242 246 248 249 251 256 258 259 261 263 268 267 266 267 268 269 271 271 275 277 277 278 279 284 288 289 292 297 297 299 302 303 302 298 303 300 304 307 308 306 311
233 236 239 240 241 245 247 248 252 255 256 259 262 264 265 267 268 269 273 272 271 273 275 277 277 281 283 283 288 292 294 298 301 300 300 296 299 301 299 301 306 304 306 306
234 237 240 243 244 248 253 253 255 256 258 259 260 260 263 266 269 270 270 271 274 276 276 276 278 280 281 285 287 290 292 294 299 297 299 299 297 298 298 302 301 301 302 302
233 238 240 243 246 248 252 255 257 258 259 258 260 266 267 266 268 269 269 267 268 272 275 276 280 283 282 282 285 286 289 293 295 295 295 296 297 297 301 300 301 301 301 300
235 236 237 242 243 245 250 255 257 260 263 264 265 264 265 265 266 269 270 272 272 271 272 274 277 278 281 284 286 287 287 290 292 293 295 296 299 302 303 304 298 302 301 300
234 236 238 238 243 246 248 252 256 258 262 263 262 263 266 268 269 269 268 270 273 275 280 280 281 280 280 283 285 287 289 291 295 298 295 297 298 299 300 301 295 293 287 283
233 235 239 240 243 243 246 250 253 257 260 264 266 269 269 270 273 273 275 275 276 277 278 278 279 283 290 293 292 294 297 300 300 295 292 293 295 304 301 291 284 279 291 288
232 237 243 243 244 246 247 250 251 253 255 258 263 266 268 269 267 272 276 276 279 278 277 279 283 286 289 289 293 297 300 298 296 294 292 290 300 296 278 265 272 290 287 295
233 234 237 241 246 249 251 250 250 252 256 260 260 265 271 269 270 272 271 269 269 274 280 278 281 285 285 286 290 292 295 290 291 294 287 285 284 264 232 252 272 279 288 290
231 236 239 242 242 244 248 253 256 258 258 257 256 243 248 250 257 265 268 267 272 280 283 283 285 285 290 292 294 290 289 290 289 285 284 283 278 273 264 265 271 282 286 284
235 237 237 241 239 238 245 252 251 250 246 251 246 247 252 256 261 265 267 271 270 269 272 274 281 289 292 290 287 284 283 286 287 279 283 282 285 282 275 268 272 278 280 284
Height
11000 11000 10999 11000 10999 10999 11000 11000 11001 11000 10998 10996 10995 10994 10994 10992 10991 10991 10989 10989 10988 10988 10988 10987 10984 10983 10981 10980 10979 10978 10976 10973 10970 10969 10966 10964 10962 10959 10955 10951 10948 10944 10940 10935
10994 10995 10996 10997 10997 10998 10999 10998 10997 10998 10997 10997 10996 10994 10994 10994 10992 10991 10990 10990 10988 10989 10989 10988 10986 10983 10980 10980 10979 10978 10974 10972 10970 10967 10964 10962 10959 10957 10953 10948 10943 10940 10936 10931
10985 10988 10990 10992 10994 10995 10996 10997 10997 10995 10995 10996 10995 10993 10992 10993 10992 10991 10990 10989 10986 10987 10987 10986 10985 10983 10982 10979 10977 10976 10975 10971 10968 10966 10962 10959 10957 10954 10950 10946 10941 10937 10932 10927
10976 10982 10984 10985 10987 10989 10991 10992 10993 10993 10994 10994 10993 10992 10992 10990 10990 10990 10990 10988 10987 10984 10983 10982 10983 10982 10981 10978 10975 10971 10969 10968 10966 10963 10960 10958 10956 10952 10947 10941 10936 10931 10927 10922
10966 10971 10974 10978 10979 10983 10984 10986 10989 10991 10990 10990 10991 10990 10991 10990 10988 10986 10987 10984 10983 10982 10981 10979 10979 10979 10978 10976 10972 10970 10969 10968 10965 10961 10958 10954 10949 10944 10940 10936 10930 10924 10918 10912
10956 10961 10966 10967 10972 10974 10975 10978 10979 10984 10986 10985 10987 10985 10986 10986 10987 10983 10980 10981 10979 10979 10980 10977 10975 10975 10974 10973 10971 10969 10967 10964 10961 10958 10954 10949 10944 10940 10936 10931 10926 10921 10915 10909
10947 10953 10957 10956 10960 10962 10965 10969 10970 10974 10978 10979 10982 10983 10981 10983 10982 10981 10978 10978 10975 10975 10975 10975 10974 10971 10971 10970 10967 10965 10964 10960 10956 10952 10948 10944 10940 10936 10932 10926 10919 10910 10903 10895
10933 10940 10945 10947 10950 10951 10953 10956 10962 10963 10966 10969 10973 10976 10976 10976 10976 10976 10975 10974 10973 10972 10969 10968 10969 10968 10966 10965 10961 10958 10956 10953 10950 10945 10940 10935 10929 10926 10922 10916 10910 10903 10895 10887
10922 10930 10929 10933 10936 10939 10944 10950 10949 10952 10957 10961 10963 10966 10967 10969 10970 10969 10971 10969 10968 10964 10961 10960 10960 10959 10957 10956 10955 10952 10948 10945 10941 10936 10930 10924 10918 10913 10908 10904 10898 10892 10885 10878
10905 10909 10914 10917 10920 10927 10934 10936 10941 10943 10947 10949 10951 10956 10960 10962 10962 10963 10960 10962 10965 10960 10956 10954 10949 10948 10946 10943 10943 10944 10942 10937 10930 10926 10920 10913 10907 10902 10899 10894 10888 10881 10875 10869
10887 10894 10899 10899 10916 10917 10921 10926 10929 10928 10935 10940 10942 10946 10949 10952 10951 10953 10952 10952 10954 10956 10949 10947 10943 10939 10936 10934 10934 10933 10932 10929 10924 10919 10910 10902 10896 10893 10888 10883 10877 10871 10862 10856
10873 10878 10877 10897 10897 10901 10904 10910 10916 10917 10924 10927 10931 10935 10938 10941 10942 10943 10944 10942 10937 10942 10945 10940 10936 10933 10930 10928 10926 10924 10921 10918 10914 10910 10903 10894 10887 10881 10875 10871 10865 10859 10850 10844
10852 10867 10865 10874 10883 10892 10894 10901 10904 10905 10907 10914 10914 10922 10921 10930 10932 10934 10934 10932 10929 10929 10930 10931 10926 10925 10922 10918 10914 10912 10909 10905 10902 10898 10893 10886 10877 10869 10863 10858 10852 10846 10839 10831
10828 10849 10852 10865 10876 10876 10876 10882 10890 10892 10895 10893 10899 10904 10913 10916 10920 10920 10919 10922 10918 10917 10918 10917 10913 10914 10914 10907 10901 10900 10898 10895 10892 10886 10880 10873 10865 10856 10850 10844 10840 10834 10825 10818
10815 10835 10841 10851 10855 10858 10866 10868 10873 10879 10884 10879 10878 10889 10901 10902 10904 10907 10909 10909 10905 10903 10906 10907 10900 10901 10900 10897 10889 10886 10886 10883 10881 10874 10865 10861 10851 10845 10838 10831 10824 10819 10812 10805
10801 10819 10825 10833 10839 10842 10851 10859 10861 10864 10864 10867 10868 10876 10880 10885 10886 10891 10895 10897 10893 10885 10887 10889 10889 10888 10885 10881 10878 10877 10872 10869 10868 10862 10854 10848 10837 10830 10822 10816 10810 10804 10796 10790
10785 10804 10808 10818 10824 10826 10832 10844 10844 10844 10850 10852 10859 10864 10856 10865 10866 10874 10879 10878 10876 10871 10871 10871 10870 10874 10874 10871 10865 10862 10858 10857 10854 10847 10842 10836 10827 10816 10807 10801 10794 10786 10780 10773
10780 10789 10796 10800 10808 10808 10816 10826 10826 10828 10833 10835 10839 10841 10846 10851 10853 10860 10862 10861 10858 10855 10854 10854 10852 10857 10860 10856 10852 10850 10847 10843 10843 10836 10826 10820 10815 10803 10794 10787 10780 10772 10764 10756
10763 10770 10776 10782 10794 10802 10801 10803 10806 10806 10810 10818 10827 10833 10835 10838 10836 10840 10845 10843 10844 10838 10834 10834 10834 10833 10835 10837 10837 10836 10831 10832 10831 10824 10813 10802 10791 10785 10780 10772 10764 10754 10745 10737
10743 10751 10760 10764 10773 10784 10789 10788 10785 10794 10795 10807 10810 10817 10822 10823 10822 10823 10821 10819 10824 10822 10820 10819 10816 10818 10819 10816 10812 10813 10815 10818 10813 10809 10797 10787 10775 10768 10765 10757 10745 10736 10730 10724
10722 10727 10737 10748 10757 10765 10770 10769 10776 10777 10777 10784 10789 10792 10800 10801 10802 10807 10808 10808 10808 10806 10804 10802 10799 10795 10800 10800 10795 10795 10796 10795 10795 10788 10779 10768 10762 10757 10752 10737 10722 10720 10713 10707
10699 10708 10716 10731 10737 10743 10755 10758 10764 10763 10762 10764 10768 10776 10780 10782 10781 10777 10783 10785 10788 10791 10788 10782 10783 10785 10777 10774 10776 10773 10773 10772 10772 10768 10761 10757 10747 10739 10735 10717 10709 10706 10696 10688
10689 10698 10702 10716 10726 10736 10743 10745 10751 10751 10748 10749 10754 10754 10758 10761 10763 10762 10765 10765 10765 10763 10761 10766 10772 10770 10769 10760 10755 10755 10755 10754 10752 10749 10744 10740 10736 10727 10718 10697 10691 10685 10679 10671
10678 10680 10692 10702 10709 10712 10718 10719 10730 10736 10732 10736 10741 10741 10739 10741 10742 10744 10748 10749 10747 10745 10748 10749 10752 10754 10750 10750 10746 10745 10743 10740 10734 10730 10726 10723 10728 10722 10701 10688 10684 10671 10665 10656
10656 10665 10680 10689 10693 10694 10697 10704 10712 10717 10719 10723 10725 10727 10725 10727 10728 10728 10731 10727 10728 10724 10723 10725 10727 10732 10735 10735 10733 10730 10728 10727 10719 10708 10703 10702 10703 10705 10699 10683 10666 10655 10646 10641
10646 10652 10670 10673 10677 10683 10681 10689 10690 10695 10698 10702 10704 10702 10700 10709 10711 10712 10713 10709 10713 10713 10711 10710 10711 10714 10715 10718 10720 10717 10712 10706 10700 10691 10686 10681 10678 10673 10669 10661 10654 10644 10636 10627